Greensboro, NC

12:06 AM EST on December 14, 2017 (GMT -0500)
Piedmont Triad International

Weather History for KGSO - May, 2012

Change the Weather History Date:

Thursday, May 31, 2012

  Actual Average Record
Temperature  
Mean Temperature 76 °F 71 °F  
Max Temperature 90 °F 81 °F 95 °F (1953)
Min Temperature 62 °F 61 °F 40 °F (1984)
Degree Days  
Heating Degree Days 0 1  
Month to date heating degree days 17 67  
Since 1 July heating degree days 2839 3612  
Cooling Degree Days 11 7  
Month to date cooling degree days 199 121  
Year to date cooling degree days 262 159  
Growing Degree Days 25 (Base 50)    
Moisture  
Dew Point 58 °F    
Average Humidity 58    
Maximum Humidity 81    
Minimum Humidity 34    
Precipitation  
Precipitation T in 0.12 in 1.95 in (1982)
Month to date precipitation 4.66 3.38  
Year to date precipitation 13.48 16.70  
Sea Level Pressure  
Sea Level Pressure 29.84 in    
Wind  
Wind Speed 5 mph (WSW)    
Max Wind Speed 20 mph    
Max Gust Speed 23 mph    
Visibility 10 miles    
Events Rain    
T = Trace of Precipitation, MM = Missing Value Source: NWS Daily Summary

Daily Weather History Graph

Daily Weather History Graph

Search for Another Location

Airport or City:

Trip Planner

Search our weather history database for the weather conditions in past years. The results will help you decide how hot, cold, wet, or windy it might be!

Date:

Astronomy

May. 31, 2012 Rise Set
Actual Time 6:04 AM EDT 8:31 PM EDT
Civil Twilight 5:34 AM EDT 9:00 PM EDT
Nautical Twilight 4:57 AM EDT 9:37 PM EDT
Astronomical Twilight 4:17 AM EDT 10:18 PM EDT
Moon 4:24 PM EDT (5/31) 2:54 AM EDT (5/31)
Length of Visible Light 15h 26m
Length of Day
14h 26m
Waxing Gibbous, 80% of the Moon is Illuminated
May 31
Waxing Gibbous
Jun 4
Full
Jun 11
Last Quarter
Jun 19
New
Jun 26
First Quarter

Hourly Weather History & Observations

Time (EDT) Temp. Heat Index Dew Point Humidity Pressure Visibility Wind Dir Wind Speed Gust Speed Precip Events Conditions
12:54 AM 70.0 °F - 60.1 °F 71% 29.81 in 10.0 mi Calm Calm - N/A   Scattered Clouds
1:54 AM 69.1 °F - 60.1 °F 73% 29.81 in 10.0 mi Calm Calm - N/A   Overcast
2:54 AM 66.9 °F - 60.1 °F 79% 29.81 in 10.0 mi SW 3.5 mph - N/A   Mostly Cloudy
3:54 AM 66.0 °F - 57.9 °F 75% 29.81 in 10.0 mi SW 3.5 mph - N/A   Clear
4:54 AM 64.9 °F - 57.0 °F 75% 29.82 in 10.0 mi Calm Calm - N/A   Clear
5:54 AM 64.9 °F - 57.0 °F 75% 29.83 in 10.0 mi Calm Calm - N/A   Partly Cloudy
6:54 AM 64.0 °F - 57.9 °F 80% 29.86 in 10.0 mi Calm Calm - N/A   Clear
7:54 AM 69.1 °F - 59.0 °F 70% 29.87 in 10.0 mi Calm Calm - N/A   Clear
8:54 AM 77.0 °F - 57.0 °F 50% 29.88 in 10.0 mi NNE 3.5 mph - N/A   Clear
9:54 AM 79.0 °F - 55.0 °F 44% 29.88 in 10.0 mi Variable 3.5 mph - N/A   Clear
10:54 AM 81.0 °F 81.0 °F 57.0 °F 44% 29.87 in 10.0 mi WNW 3.5 mph - N/A   Clear
11:54 AM 82.9 °F 82.4 °F 57.0 °F 41% 29.87 in 10.0 mi WSW 4.6 mph - N/A   Clear
12:54 PM 84.0 °F 83.0 °F 55.9 °F 38% 29.86 in 10.0 mi WSW 8.1 mph - N/A   Clear
1:54 PM 87.1 °F 85.9 °F 57.0 °F 36% 29.85 in 10.0 mi Variable 4.6 mph - N/A   Partly Cloudy
2:54 PM 87.1 °F 85.9 °F 57.0 °F 36% 29.83 in 10.0 mi WSW 8.1 mph - N/A   Scattered Clouds
3:54 PM 88.0 °F 86.5 °F 55.9 °F 34% 29.82 in 10.0 mi WSW 8.1 mph 18.4 mph N/A   Scattered Clouds
4:54 PM 87.1 °F 85.3 °F 55.0 °F 33% 29.80 in 10.0 mi WSW 8.1 mph 17.3 mph N/A   Partly Cloudy
5:54 PM 87.1 °F 85.3 °F 55.0 °F 33% 29.80 in 10.0 mi SW 10.4 mph - N/A   Partly Cloudy
6:54 PM 84.0 °F 83.3 °F 57.0 °F 40% 29.80 in 10.0 mi SW 8.1 mph - N/A   Scattered Clouds
7:32 PM 77.0 °F - 57.2 °F 50% 29.85 in 10.0 mi NW 11.5 mph 23.0 mph N/A   Overcast
7:54 PM 75.9 °F - 57.0 °F 52% 29.83 in 10.0 mi NNW 6.9 mph - N/A   Mostly Cloudy
8:54 PM 72.0 °F - 57.9 °F 61% 29.84 in 10.0 mi NNW 8.1 mph - 0.00 in Rain Light Rain
9:54 PM 71.1 °F - 61.0 °F 70% 29.84 in 10.0 mi ESE 4.6 mph - N/A   Mostly Cloudy
10:54 PM 73.0 °F - 59.0 °F 61% 29.86 in 10.0 mi SE 5.8 mph - N/A   Scattered Clouds
11:54 PM 71.1 °F - 60.1 °F 68% 29.85 in 10.0 mi SE 4.6 mph - N/A   Partly Cloudy